Location: Observatoire
(46.1952°N, 5.3391°E)
Time: 06:59:38
(UTC+01:00)

Tiros 1 despin weight - Pass Details

Date: 21 February 2026
Orbit: 556 x 593 km, 48.2° (Epoch: 13 March)

Event Time Altitude Azimuth Distance (km) Brightness Sun altitude
Rises 16:34:03 0° 268° (W) 2,739 ? 14.8°
Reaches altitude 10° 16:36:19 10° 271° (W) 1,841 ? 14.5°
Maximum altitude 16:40:30 68° 355° (N) 602 ? 13.9°
Drops below altitude 10° 16:44:40 10° 78° (ENE) 1,836 ? 13.3°
Sets 16:46:56 0° 81° (E) 2,732 ? 12.9°
